Flag for Japan Weather past 2 weeks in Fukuoka, Japan

Now
75 °F

Partly sunny.


Feels Like: 78 °F
Forecast: 59 / 80 °F
Wind: 8 mph from Northwest

Location: Fukuoka Airport

Current Time: May 25, 2015 at 10:22:10 AM

Latest Report: May 25, 2015 at 10:00 AM


Visibility: N/A

Pressure: 29.77 "Hg

Humidity: 57%

Dew point: 59 °F

Location of FukuokaLocation

Historic Weather in Fukuoka — Graph

°F

Fukuoka temperature yesterday

Maximum temperature yesterday: 81 °F (at 12:30 PM)
Minimum temperature yesterday: 63 °F (at 5:00 AM)
Average temperature yesterday: 70 °F

Past Weeks' High & Low Weather Summary

 TemperatureHumidityPressure
High82 °F (May 13, 2:00 PM)100% (May 16, 1:30 AM)30.12 "Hg (May 16, 1:30 AM)
Low55 °F (May 21, 4:00 AM)20% (May 13, 3:30 PM)29.50 "Hg (May 18, 5:30 PM)
Average68 °F68%29.82 "Hg
* Reported May 10 9:00 AM — May 25 9:00 AM, Fukuoka, Weather by CustomWeather, © 2015

Note: Actual official high and low records may vary slightly from our data, if they occured in-between our weather recording intervals... More about our weather records

Advertising

Fukuoka weather history for previous 24 hours

 ConditionsComfort  
Time TempWeatherWind HumidityBarometerVisibility
9:00 AM
Mon, May 25
73 °FSunny.3 mph57%29.77 "Hg10 mi
8:30 AM70 °FSunny.2 mph64%29.77 "Hg10 mi
8:00 AM70 °FSunny.2 mph64%29.77 "Hg10 mi
7:30 AM66 °FSunny.3 mph78%29.77 "Hg10 mi
7:00 AM64 °FSunny.3 mph83%29.77 "Hg10 mi
6:30 AM64 °FSunny.3 mph83%29.77 "Hg10 mi
6:00 AM63 °FSunny.3 mph83%29.77 "Hg10 mi
5:30 AM63 °FSunny.No wind83%29.77 "Hg10 mi
5:00 AM63 °FClear.1 mph83%29.77 "Hg10 mi
4:30 AM63 °FClear.2 mph88%29.77 "Hg10 mi
4:00 AM63 °FClear.2 mph83%29.77 "Hg10 mi
3:30 AM63 °FClear.No wind88%29.77 "Hg10 mi
3:00 AM64 °FClear.1 mph83%29.77 "Hg10 mi
2:30 AM64 °FClear.2 mph83%29.74 "Hg10 mi
2:00 AM64 °FClear.2 mph83%29.74 "Hg10 mi
1:30 AM66 °FClear.2 mph78%29.74 "Hg10 mi
1:00 AM64 °FClear.No wind83%29.74 "Hg10 mi
12:30 AM64 °FClear.2 mph83%29.74 "Hg10 mi
12:00 AM66 °FClear.3 mph78%29.74 "Hg10 mi
11:30 PM
Sun, May 24
66 °FClear.1 mph78%29.74 "Hg10 mi
11:00 PM66 °FClear.3 mph78%29.77 "Hg10 mi
10:30 PM68 °FClear.5 mph78%29.77 "Hg10 mi
10:00 PM68 °FClear.2 mph78%29.77 "Hg10 mi
9:30 PM68 °FClear.2 mph78%29.77 "Hg10 mi
9:00 PM70 °FClear.2 mph69%29.74 "Hg10 mi
8:30 PM70 °FClear.5 mph73%29.74 "Hg10 mi
8:00 PM70 °FPassing clouds.6 mph60%29.74 "HgN/A
7:30 PM72 °FPassing clouds.6 mph57%29.74 "HgN/A
7:00 PM72 °FPassing clouds.7 mph61%29.74 "HgN/A
6:30 PM73 °FPassing clouds.8 mph53%29.71 "HgN/A
6:00 PM73 °FPassing clouds.9 mph53%29.71 "HgN/A
5:30 PM73 °FPartly sunny.9 mph53%29.71 "HgN/A
5:00 PM75 °FScattered clouds.9 mph54%29.71 "HgN/A
4:30 PM75 °FPartly sunny.10 mph54%29.71 "HgN/A
4:00 PM75 °FPartly sunny.10 mph54%29.71 "HgN/A
3:30 PM75 °FPartly sunny.12 mph54%29.71 "HgN/A
3:00 PM75 °FPartly sunny.12 mph50%29.71 "HgN/A
2:30 PM77 °FPartly sunny.13 mph51%29.71 "HgN/A
2:00 PM77 °FPartly sunny.14 mph51%29.71 "HgN/A
1:30 PM79 °FPartly sunny.13 mph48%29.71 "HgN/A
1:00 PM81 °FPartly sunny.13 mph45%29.71 "HgN/A
12:30 PM81 °FPartly sunny.10 mph45%29.74 "HgN/A
12:00 PM79 °FPartly sunny.10 mph48%29.74 "HgN/A
11:30 AM77 °FPartly sunny.6 mph47%29.74 "HgN/A
11:00 AM79 °FPartly sunny.2 mph45%29.74 "HgN/A
10:30 AM75 °FPartly sunny.3 mph47%29.77 "HgN/A
10:00 AM73 °FSunny.1 mph57%29.77 "Hg10 mi
Weather by CustomWeather, © 2015

See weather overviewHow to use our weather pages